Location: Liberec
(50.7830°N, 15.0500°E)
Time: 12:01:42
(UTC+01:00)

ISS - Pass Details

Date: 30 September 2023
Orbit: 416 x 417 km, 51.6° (Epoch: 01 December)

Event Time Altitude Azimuth Distance (km) Brightness Sun altitude
Rises 19:55:05 0° 285° (WNW) 2,372 2.2 -12.5°
Reaches altitude 10° 19:57:20 10° 275° (W) 1,500 0.5 -12.9°
Maximum altitude 20:00:19 30° 212° (SSW) 779 -2.2 -13.3°
Enters shadow 20:02:42 14° 155° (SSE) 1,280 -1.7 -13.7°
